| time (UTC) | temp F | wind direction | speed MPH | gust MPH | rain 1hr in | rain 24hr in | rain mn in | humidity % | barometer mb |
| 20260506104503 | 53 | 315 | 10.0 | 16.0 | 0.00 | 0.00 | 0.00 | 79 | 1012.0 |
| 20260506103603 | 52 | 321 | 9.0 | 15.0 | 0.00 | 0.00 | 0.00 | 82 | 1011.9 |
| 20260506102703 | 52 | 313 | 10.0 | 15.0 | 0.00 | 0.00 | 0.00 | 80 | 1012.1 |
| 20260506101803 | 54 | 335 | 10.0 | 16.0 | 0.00 | 0.00 | 0.00 | 75 | 1012.1 |
| 20260506100903 | 57 | 328 | 11.0 | 16.0 | 0.00 | 0.00 | 0.00 | 67 | 1011.9 |
| 20260506100004 | 57 | 326 | 11.0 | 15.0 | 0.00 | 0.00 | 0.00 | 67 | 1011.9 |
| 20260506095403 | 57 | 324 | 11.0 | 19.0 | 0.00 | 0.00 | 0.00 | 68 | 1012.1 |
| 20260506094503 | 56 | 343 | 11.0 | 19.0 | 0.00 | 0.00 | 0.00 | 72 | 1012.1 |
| 20260506093821 | 55 | 346 | 11.0 | 19.0 | 0.00 | 0.00 | 0.00 | 74 | 1012.1 |
| 20260506092703 | 53 | 352 | 8.0 | 14.0 | 0.00 | 0.00 | 0.00 | 76 | 1012.1 |
| 20260506091803 | 53 | 342 | 9.0 | 14.0 | 0.00 | 0.00 | 0.00 | 73 | 1012.1 |
| 20260506090903 | 54 | 341 | 8.0 | 15.0 | 0.00 | 0.00 | 0.00 | 70 | 1011.9 |
| 20260506090004 | 55 | 330 | 9.0 | 15.0 | 0.00 | 0.00 | 0.00 | 70 | 1011.8 |
| 20260506085403 | 55 | 323 | 10.0 | 15.0 | 0.00 | 0.00 | 0.00 | 71 | 1011.8 |
| 20260506084503 | 54 | 337 | 9.0 | 15.0 | 0.00 | 0.00 | 0.00 | 73 | 1011.8 |
| 20260506083603 | 54 | 339 | 10.0 | 15.0 | 0.00 | 0.00 | 0.00 | 74 | 1011.6 |
| 20260506082703 | 53 | 330 | 8.0 | 15.0 | 0.00 | 0.00 | 0.00 | 75 | 1011.8 |
| 20260506082021 | 53 | 326 | 10.0 | 15.0 | 0.00 | 0.00 | 0.00 | 75 | 1011.8 |
| 20260506080903 | 53 | 325 | 11.0 | 17.0 | 0.00 | 0.00 | 0.00 | 76 | 1011.8 |
| 20260506072703 | 50 | 309 | 10.0 | 16.0 | 0.00 | 0.00 | 0.00 | 79 | 1011.7 |
| 20260506072017 | 50 | 317 | 9.0 | 15.0 | 0.00 | 0.00 | 0.00 | 79 | 1011.6 |
| 20260506070903 | 50 | 316 | 10.0 | 15.0 | 0.00 | 0.00 | 0.00 | 80 | 1011.7 |
| 20260506061803 | 47 | 308 | 8.0 | 13.0 | 0.00 | 0.00 | 0.00 | 87 | 1011.4 |
| 20260506060903 | 46 | 308 | 9.0 | 12.0 | 0.00 | 0.00 | 0.00 | 88 | 1011.2 |
| 20260506050903 | 42 | 307 | 7.0 | 11.0 | 0.00 | 0.00 | 0.00 | 90 | 1011.2 |
| 20260506044717 | 41 | 307 | 7.0 | 11.0 | 0.00 | 0.00 | 0.00 | 89 | 1011.2 |
| 20260506043819 | 41 | 305 | 7.0 | 11.0 | 0.00 | 0.00 | 0.00 | 89 | 1011.2 |
| 20260506042922 | 41 | 305 | 7.0 | 10.0 | 0.00 | 0.00 | 0.00 | 89 | 1011.2 |
| 20260506041803 | 41 | 304 | 5.0 | 9.0 | 0.00 | 0.00 | 0.00 | 88 | 1011.2 |
| 20260506040903 | 41 | 306 | 5.0 | 10.0 | 0.00 | 0.00 | 0.00 | 88 | 1011.3 |
| 20260506040003 | 42 | 308 | 5.0 | 10.0 | 0.00 | 0.00 | 0.00 | 88 | 1011.4 |
| 20260506035403 | 42 | 308 | 6.0 | 10.0 | 0.00 | 0.00 | 0.00 | 88 | 1011.4 |
| 20260506034503 | 42 | 306 | 6.0 | 10.0 | 0.00 | 0.00 | 0.00 | 87 | 1011.5 |
| 20260506033603 | 42 | 296 | 6.0 | 9.0 | 0.00 | 0.00 | 0.00 | 86 | 1011.3 |
| 20260506032703 | 43 | 297 | 5.0 | 8.0 | 0.00 | 0.00 | 0.00 | 86 | 1011.4 |
| 20260506031803 | 43 | 302 | 4.0 | 8.0 | 0.00 | 0.00 | 0.00 | 85 | 1011.5 |
| 20260506031117 | 44 | 311 | 4.0 | 8.0 | 0.00 | 0.00 | 0.00 | 85 | 1011.6 |
| 20260506030004 | 44 | 311 | 5.0 | 8.0 | 0.00 | 0.00 | 0.00 | 85 | 1011.8 |
| 20260506025403 | 44 | 310 | 5.0 | 9.0 | 0.00 | 0.00 | 0.00 | 85 | 1011.9 |
| 20260506024503 | 44 | 312 | 5.0 | 10.0 | 0.00 | 0.00 | 0.00 | 84 | 1011.9 |
| 20260506023603 | 45 | 321 | 6.0 | 10.0 | 0.00 | 0.00 | 0.00 | 84 | 1011.9 |
| 20260506022703 | 45 | 320 | 6.0 | 11.0 | 0.00 | 0.00 | 0.00 | 83 | 1011.9 |
| 20260506021803 | 46 | 323 | 7.0 | 12.0 | 0.00 | 0.00 | 0.00 | 82 | 1011.9 |
| 20260506020903 | 46 | 329 | 7.0 | 12.0 | 0.00 | 0.00 | 0.00 | 82 | 1011.9 |
| 20260506020003 | 47 | 331 | 9.0 | 12.0 | 0.00 | 0.00 | 0.00 | 82 | 1012.0 |
| 20260506015403 | 47 | 331 | 7.0 | 12.0 | 0.00 | 0.00 | 0.00 | 82 | 1012.0 |
| 20260506014503 | 47 | 327 | 7.0 | 12.0 | 0.00 | 0.00 | 0.00 | 81 | 1012.0 |
| 20260506013603 | 48 | 327 | 7.0 | 11.0 | 0.00 | 0.00 | 0.00 | 81 | 1012.0 |
| 20260506012703 | 48 | 329 | 6.0 | 12.0 | 0.00 | 0.00 | 0.00 | 81 | 1012.0 |
| 20260506011803 | 48 | 327 | 6.0 | 12.0 | 0.00 | 0.00 | 0.00 | 81 | 1012.0 |
| 20260506011118 | 48 | 319 | 6.0 | 12.0 | 0.00 | 0.00 | 0.00 | 82 | 1011.9 |
| 20260506010004 | 48 | 325 | 6.0 | 10.0 | 0.00 | 0.00 | 0.00 | 82 | 1012.0 |
| 20260506005403 | 48 | 323 | 5.0 | 9.0 | 0.00 | 0.00 | 0.00 | 82 | 1012.1 |
| 20260506004504 | 48 | 336 | 5.0 | 9.0 | 0.00 | 0.00 | 0.00 | 82 | 1012.1 |
| 20260506003817 | 48 | 334 | 5.0 | 9.0 | 0.00 | 0.00 | 0.00 | 83 | 1012.1 |
| 20260506002919 | 48 | 342 | 4.0 | 9.0 | 0.00 | 0.00 | 0.00 | 83 | 1012.1 |
| 20260506001803 | 49 | 320 | 4.0 | 10.0 | 0.00 | 0.00 | 0.00 | 83 | 1012.1 |
| 20260506001119 | 49 | 342 | 4.0 | 10.0 | 0.00 | 0.00 | 0.00 | 83 | 1012.1 |
| 20260506000003 | 49 | 358 | 6.0 | 10.0 | 0.00 | 0.00 | 0.00 | 84 | 1012.1 |
| 20260505235403 | 49 | 356 | 5.0 | 10.0 | 0.00 | 0.00 | 0.00 | 84 | 1012.1 |
| 20260505234503 | 49 | 342 | 4.0 | 8.0 | 0.00 | 0.00 | 0.00 | 84 | 1012.1 |
| 20260505233603 | 49 | 341 | 5.0 | 11.0 | 0.00 | 0.00 | 0.00 | 84 | 1012.2 |
| 20260505232703 | 49 | 348 | 6.0 | 11.0 | 0.00 | 0.00 | 0.00 | 84 | 1012.3 |
| 20260505231803 | 49 | 343 | 6.0 | 11.0 | 0.00 | 0.00 | 0.00 | 84 | 1012.3 |
| 20260505230903 | 49 | 343 | 6.0 | 11.0 | 0.00 | 0.00 | 0.00 | 84 | 1012.3 |
| 20260505230007 | 49 | 341 | 6.0 | 9.0 | 0.00 | 0.00 | 0.00 | 84 | 1012.3 |
| 20260505225618 | 49 | 339 | 5.0 | 9.0 | 0.00 | 0.00 | 0.00 | 84 | 1012.3 |
| 20260505224503 | 49 | 331 | 5.0 | 10.0 | 0.00 | 0.00 | 0.00 | 83 | 1012.3 |
| 20260505223603 | 49 | 335 | 5.0 | 10.0 | 0.00 | 0.00 | 0.00 | 83 | 1012.4 |
| 20260505222703 | 49 | 340 | 5.0 | 9.0 | 0.00 | 0.00 | 0.00 | 83 | 1012.4 |
| 20260505221803 | 49 | 343 | 4.0 | 9.0 | 0.00 | 0.00 | 0.00 | 83 | 1012.5 |
| 20260505220903 | 49 | 343 | 4.0 | 8.0 | 0.00 | 0.00 | 0.00 | 83 | 1012.5 |
| 20260505220004 | 49 | 352 | 4.0 | 9.0 | 0.00 | 0.00 | 0.00 | 82 | 1012.4 |
| 20260505215403 | 49 | 354 | 5.0 | 9.0 | 0.00 | 0.00 | 0.00 | 82 | 1012.3 |
| 20260505214503 | 49 | 4 | 6.0 | 16.0 | 0.00 | 0.00 | 0.00 | 82 | 1012.4 |
| 20260505213603 | 49 | 16 | 7.0 | 16.0 | 0.00 | 0.00 | 0.00 | 82 | 1012.4 |
| 20260505212703 | 49 | 360 | 5.0 | 16.0 | 0.00 | 0.00 | 0.00 | 81 | 1012.5 |
| 20260505211803 | 50 | 354 | 3.0 | 6.0 | 0.00 | 0.00 | 0.00 | 80 | 1012.5 |
| 20260505210903 | 50 | 354 | 4.0 | 11.0 | 0.00 | 0.00 | 0.00 | 80 | 1012.5 |
| 20260505210003 | 50 | 358 | 6.0 | 11.0 | 0.00 | 0.00 | 0.00 | 80 | 1012.5 |
| 20260505205403 | 50 | 359 | 6.0 | 12.0 | 0.00 | 0.00 | 0.00 | 80 | 1012.5 |
| 20260505204503 | 51 | 1 | 6.0 | 12.0 | 0.00 | 0.00 | 0.00 | 79 | 1012.5 |
| 20260505203603 | 51 | 11 | 7.0 | 13.0 | 0.00 | 0.00 | 0.00 | 79 | 1012.5 |
| 20260505202703 | 51 | 2 | 8.0 | 13.0 | 0.00 | 0.00 | 0.00 | 78 | 1012.5 |
| 20260505201803 | 51 | 4 | 8.0 | 13.0 | 0.00 | 0.00 | 0.00 | 77 | 1012.5 |
| 20260505200903 | 52 | 7 | 9.0 | 14.0 | 0.00 | 0.00 | 0.00 | 77 | 1012.3 |
| 20260505200003 | 52 | 358 | 8.0 | 14.0 | 0.00 | 0.00 | 0.00 | 78 | 1012.3 |
| 20260505195620 | 52 | 1 | 7.0 | 14.0 | 0.00 | 0.00 | 0.00 | 78 | 1012.2 |
| 20260505194503 | 52 | 3 | 6.0 | 12.0 | 0.00 | 0.00 | 0.00 | 79 | 1012.0 |
| 20260505193603 | 52 | 358 | 6.0 | 12.0 | 0.00 | 0.00 | 0.00 | 80 | 1011.9 |
| 20260505192703 | 52 | 360 | 5.0 | 11.0 | 0.00 | 0.00 | 0.00 | 81 | 1011.8 |
| 20260505191803 | 52 | 358 | 5.0 | 11.0 | 0.00 | 0.00 | 0.00 | 82 | 1011.7 |
| 20260505190903 | 53 | 357 | 4.0 | 8.0 | 0.00 | 0.00 | 0.00 | 83 | 1011.7 |
| 20260505190219 | 53 | 3 | 4.0 | 8.0 | 0.00 | 0.00 | 0.00 | 83 | 1011.6 |
| 20260505185403 | 52 | 14 | 4.0 | 8.0 | 0.00 | 0.00 | 0.00 | 83 | 1011.5 |
| 20260505184503 | 53 | 17 | 3.0 | 7.0 | 0.00 | 0.00 | 0.00 | 83 | 1011.6 |
| 20260505183603 | 53 | 16 | 3.0 | 10.0 | 0.00 | 0.00 | 0.00 | 83 | 1011.4 |
| 20260505182703 | 53 | 17 | 5.0 | 11.0 | 0.00 | 0.00 | 0.00 | 81 | 1011.5 |
| 20260505182020 | 53 | 15 | 6.0 | 10.0 | 0.00 | 0.00 | 0.00 | 80 | 1011.6 |
| 20260505180903 | 54 | 16 | 7.0 | 11.0 | 0.00 | 0.00 | 0.00 | 78 | 1011.3 |
| 20260505180003 | 54 | 14 | 8.0 | 13.0 | 0.00 | 0.00 | 0.00 | 77 | 1011.3 |
| 20260505175403 | 55 | 10 | 8.0 | 13.0 | 0.00 | 0.00 | 0.00 | 76 | 1011.4 |
| 20260505174503 | 55 | 13 | 8.0 | 13.0 | 0.00 | 0.00 | 0.00 | 74 | 1011.4 |
| 20260505173603 | 56 | 16 | 6.0 | 11.0 | 0.00 | 0.00 | 0.00 | 72 | 1011.3 |
| 20260505172918 | 56 | 9 | 5.0 | 11.0 | 0.00 | 0.00 | 0.00 | 71 | 1011.4 |
| 20260505171803 | 57 | 106 | 1.0 | 3.0 | 0.00 | 0.00 | 0.00 | 69 | 1011.2 |
| 20260505170903 | 57 | 106 | 1.0 | 4.0 | 0.00 | 0.00 | 0.00 | 69 | 1011.3 |
| 20260505170004 | 57 | 106 | 2.0 | 4.0 | 0.00 | 0.00 | 0.00 | 68 | 1011.3 |
| 20260505165617 | 57 | 106 | 1.0 | 4.0 | 0.00 | 0.00 | 0.00 | 68 | 1011.3 |
| 20260505164719 | 57 | 112 | 0.0 | 3.0 | 0.00 | 0.00 | 0.00 | 68 | 1011.1 |
| 20260505163603 | 58 | 128 | 1.0 | 5.0 | 0.00 | 0.00 | 0.00 | 67 | 1011.2 |
| 20260505162703 | 58 | 138 | 2.0 | 8.0 | 0.00 | 0.00 | 0.00 | 67 | 1011.1 |
| 20260505161803 | 58 | 129 | 2.0 | 8.0 | 0.00 | 0.00 | 0.00 | 66 | 1011.2 |
| 20260505160903 | 58 | 133 | 3.0 | 7.0 | 0.00 | 0.00 | 0.00 | 65 | 1011.2 |
| 20260505152703 | 59 | 145 | 4.0 | 8.0 | 0.00 | 0.00 | 0.00 | 62 | 1011.1 |
| 20260505151803 | 59 | 129 | 2.0 | 8.0 | 0.00 | 0.00 | 0.00 | 63 | 1011.1 |
| 20260505150903 | 60 | 139 | 3.0 | 8.0 | 0.00 | 0.00 | 0.00 | 61 | 1011.2 |
| 20260505124717 | 64 | 10 | 1.0 | 12.0 | 0.00 | 0.00 | 0.00 | 49 | 1011.9 |
| 20260505123819 | 66 | 26 | 5.0 | 12.0 | 0.00 | 0.00 | 0.00 | 48 | 1012.0 |
| 20260505122703 | 71 | 33 | 2.0 | 12.0 | 0.00 | 0.00 | 0.00 | 43 | 1012.0 |
| 20260505121803 | 71 | 48 | 4.0 | 10.0 | 0.00 | 0.00 | 0.00 | 45 | 1011.9 |
| 20260505121121 | 71 | 20 | 2.0 | 10.0 | 0.00 | 0.00 | 0.00 | 46 | 1011.9 |
| 20260505120004 | 68 | 9 | 4.0 | 11.0 | 0.00 | 0.00 | 0.00 | 49 | 1011.9 |
| 20260505115403 | 67 | 43 | 4.0 | 11.0 | 0.00 | 0.00 | 0.00 | 51 | 1012.0 |
| 20260505114717 | 65 | 75 | 2.0 | 10.0 | 0.00 | 0.00 | 0.00 | 49 | 1012.0 |
| 20260505113603 | 68 | 358 | 3.0 | 10.0 | 0.00 | 0.00 | 0.00 | 46 | 1012.1 |
| 20260505112703 | 69 | 26 | 4.0 | 10.0 | 0.00 | 0.00 | 0.00 | 47 | 1012.2 |
| 20260505111803 | 68 | 53 | 3.0 | 9.0 | 0.00 | 0.00 | 0.00 | 54 | 1012.4 |
| 20260505110903 | 66 | 56 | 3.0 | 9.0 | 0.00 | 0.00 | 0.00 | 50 | 1012.1 |